Showing default

COSMOS 209, 3158

Orbit data source: Space-Track

COSMOS 209, 3158 is a payload satellite owned by TSKBM (CIS) in LEO that was launched on Fri, 22 Mar 1968 UTC via a TSIKLON-2A launch vehicle from the Tyuratam Missile And Space Complex (TTMTR). Payload-class satellites include a variety of spacecraft equipped with specific instruments for various scientific and technological missions. These include communications satellites like Starlink; space stations such as the ISS; scientific satellites like the Hubble; Earth observation satellites from companies like Planet Labs, Umbra, and HawkEye 360; GPS; miniature CubeSats for education and research; and military/defense satellites.

Loading next visibility...
Identifier
3158, 1968-023A
Orbit
LEO
Country
Flag of CISCIS
Related business
Manufacturer
TSKBM/KB1
Mission
Spacecraft
Bus & Motor
US-A REACTOR, Unknown motor
Mass
3,800 kg wet, 1,140 kg dry
Launch date (UTC)
1968-03-22 (58 years ago)
Launch vehicle
TSIKLON-2A
Launch site
Tyuratam Missile And Space Complex (TTMTR)
Object type
Payload
Rocket body
Debris
Shape & HBR
Unknown
Radar Cross Section
Large (>1 m²)

Expand to show TLE details & history
Last TLE update: 20 hours ago

TLE from 20 hours ago
0 COSMOS 209
1 03158U 68023A   25340.75225739 -.00000025  00000-0  44743-4 0  9994
2 03158  65.3327 338.4765 0046960 307.8414  51.8411 13.97918144944119
Epoch: 2025-12-06T18:03Z
TLE epoch observation values (Epoch: 2025-12-06T18:03:15.038Z)
Latitude
0.00001°
Longitude
-8.11164°
Altitude
881.959 km
Speed
7.422 km/s
True Right ascension
22h 33m 54s
True Declination
0° 00' 00"
Sunlit
Object was in daylight at epoch
Visualization orbit readout
Latitude
Unknown
Longitude
Unknown
Altitude
Unknown
Speed
Unknown
Apparent Right ascension
Unknown
Apparent Declination
Unknown
Sunlit
N/A
Visualization observer readout
Local Sidereal Time
11:59:33
Azimuth
Unknown
Elevation
Unknown
Doppler factor
Unknown
Orbital elements
Apogee altitude
933.75 km
Perigee altitude
865.397 km
Semi-major axis
7,277.71 km
Eccentricity
0.0047
Inclination
65.3327°
RAAN
338.4765°
Arg. of periapsis
307.8414°
True anomaly
52.26576°
Mean anomaly
51.8411°
Eccentric anomaly
52.05328°
Mean motion
3.49584 °/min
Orbital period
102.98 mins
BSTAR
0.000044743
Loading maneuver chart data...
Computing Atmospheric mass density...
Loading historical data...
Loading historical data...
Loading historical data...
Loading historical data...
Loading historical data...
Loading historical data...
Loading historical data...

Documentation

Showing up to 5 results
|